TimeCST,TemperatureF,Dew PointF,Humidity,Sea Level PressureIn,VisibilityMPH,Wind Direction,Wind SpeedMPH,Gust SpeedMPH,PrecipitationIn,Events,Conditions,WindDirDegrees,DateUTC
12:15 AM,10.2,4.5,78,30.39,10.0,SSW,3.5,-,N/A,,Clear,200,2012-11-27 06:15:00
12:35 AM,10.6,5.4,79,30.38,10.0,South,3.5,-,N/A,,Clear,190,2012-11-27 06:35:00
12:55 AM,11.7,5.7,77,30.38,10.0,SSW,3.5,-,N/A,,Clear,200,2012-11-27 06:55:00
1:15 AM,12.0,7.7,83,30.38,10.0,South,4.6,-,N/A,,Clear,190,2012-11-27 07:15:00
1:35 AM,12.0,8.1,84,30.37,10.0,SSW,5.8,-,N/A,,Clear,200,2012-11-27 07:35:00
1:55 AM,11.8,8.1,85,30.36,10.0,South,8.1,-,N/A,,Clear,190,2012-11-27 07:55:00
2:15 AM,13.6,10.0,86,30.37,10.0,South,6.9,-,N/A,,Clear,190,2012-11-27 08:15:00
2:35 AM,14.4,11.5,88,30.36,10.0,SSW,6.9,-,N/A,,Clear,200,2012-11-27 08:35:00
2:55 AM,15.3,12.2,88,30.35,10.0,South,8.1,-,N/A,,Clear,190,2012-11-27 08:55:00
3:15 AM,15.4,12.7,89,30.34,10.0,South,6.9,-,N/A,,Clear,190,2012-11-27 09:15:00
3:35 AM,15.3,12.6,89,30.33,10.0,South,5.8,-,N/A,,Clear,190,2012-11-27 09:35:00
3:55 AM,16.5,14.0,90,30.32,10.0,South,9.2,-,N/A,,Clear,190,2012-11-27 09:55:00
4:15 AM,16.3,13.6,89,30.31,10.0,South,6.9,-,N/A,,Clear,190,2012-11-27 10:15:00
4:35 AM,16.5,14.0,90,30.30,10.0,South,8.1,-,N/A,,Clear,190,2012-11-27 10:35:00
4:55 AM,16.3,14.0,90,30.30,10.0,South,5.8,-,N/A,,Clear,180,2012-11-27 10:55:00
5:15 AM,17.4,14.9,90,30.29,10.0,South,3.5,-,N/A,,Clear,190,2012-11-27 11:15:00
5:35 AM,18.0,15.4,90,30.29,10.0,South,4.6,-,N/A,,Clear,190,2012-11-27 11:35:00
5:55 AM,18.1,15.6,90,30.28,10.0,SSW,5.8,-,N/A,,Clear,200,2012-11-27 11:55:00
6:15 AM,19.4,16.7,89,30.26,10.0,SSW,11.5,-,N/A,,Clear,210,2012-11-27 12:15:00
6:35 AM,19.6,17.2,91,30.26,10.0,SW,12.7,-,N/A,,Clear,220,2012-11-27 12:35:00
6:55 AM,20.1,17.6,90,30.26,10.0,SSW,11.5,-,N/A,,Clear,210,2012-11-27 12:55:00
7:15 AM,20.8,18.5,91,30.25,10.0,SSW,11.5,-,N/A,,Clear,210,2012-11-27 13:15:00
7:35 AM,21.0,18.5,90,30.25,10.0,SSW,10.4,-,N/A,,Clear,200,2012-11-27 13:35:00
7:55 AM,20.3,18.0,91,30.24,10.0,South,10.4,-,N/A,,Clear,190,2012-11-27 13:55:00
8:15 AM,21.6,19.2,91,30.24,10.0,South,11.5,-,N/A,,Clear,190,2012-11-27 14:15:00
8:35 AM,23.5,20.3,87,30.24,10.0,SSW,11.5,-,N/A,,Clear,200,2012-11-27 14:35:00
8:55 AM,25.2,21.7,87,30.25,10.0,SSW,9.2,-,N/A,,Clear,200,2012-11-27 14:55:00
9:15 AM,26.8,22.5,84,30.24,10.0,SSW,12.7,-,N/A,,Clear,210,2012-11-27 15:15:00
9:35 AM,28.4,23.0,80,30.23,10.0,SSW,13.8,-,N/A,,Clear,200,2012-11-27 15:35:00
9:55 AM,30.2,23.7,77,30.22,10.0,SSW,15.0,-,N/A,,Clear,210,2012-11-27 15:55:00
10:15 AM,32.2,24.6,74,30.22,10.0,SW,16.1,23.0,N/A,,Clear,220,2012-11-27 16:15:00
10:35 AM,33.4,24.6,70,30.21,10.0,SSW,19.6,-,N/A,,Clear,210,2012-11-27 16:35:00
10:55 AM,35.4,25.2,66,30.20,10.0,SSW,19.6,27.6,N/A,,Clear,210,2012-11-27 16:55:00
11:15 AM,37.4,24.8,60,30.19,10.0,SW,23.0,26.5,N/A,,Clear,220,2012-11-27 17:15:00
11:35 AM,37.6,24.4,59,30.17,10.0,SW,24.2,29.9,N/A,,Clear,220,2012-11-27 17:35:00
11:55 AM,38.3,24.1,57,30.17,10.0,SW,20.7,27.6,N/A,,Clear,220,2012-11-27 17:55:00
12:15 PM,38.3,24.6,58,30.16,10.0,SW,17.3,24.2,N/A,,Clear,230,2012-11-27 18:15:00
12:35 PM,39.4,25.2,57,30.15,10.0,SW,17.3,23.0,N/A,,Clear,230,2012-11-27 18:35:00
12:55 PM,39.4,25.2,57,30.14,10.0,SW,11.5,20.7,N/A,,Clear,230,2012-11-27 18:55:00
1:15 PM,40.1,24.8,54,30.14,10.0,SW,15.0,-,N/A,,Clear,230,2012-11-27 19:15:00
1:35 PM,39.9,24.8,55,30.14,10.0,West,11.5,17.3,N/A,,Clear,260,2012-11-27 19:35:00
1:55 PM,40.3,24.3,53,30.12,10.0,WSW,11.5,17.3,N/A,,Clear,240,2012-11-27 19:55:00
2:15 PM,40.5,24.6,53,30.12,10.0,West,12.7,-,N/A,,Clear,260,2012-11-27 20:15:00
2:35 PM,41.2,25.2,53,30.13,10.0,West,9.2,-,N/A,,Clear,260,2012-11-27 20:35:00
2:55 PM,41.7,25.2,52,30.12,10.0,West,12.7,-,N/A,,Clear,260,2012-11-27 20:55:00
3:15 PM,40.5,24.6,53,30.13,10.0,West,10.4,-,N/A,,Clear,260,2012-11-27 21:15:00
3:35 PM,40.5,24.8,54,30.14,10.0,West,10.4,-,N/A,,Clear,260,2012-11-27 21:35:00
3:55 PM,40.1,24.8,54,30.15,10.0,West,9.2,-,N/A,,Clear,280,2012-11-27 21:55:00
4:15 PM,39.6,24.8,56,30.15,10.0,West,6.9,-,N/A,,Clear,270,2012-11-27 22:15:00
4:35 PM,38.7,24.6,57,30.16,10.0,West,6.9,-,N/A,,Clear,270,2012-11-27 22:35:00
4:55 PM,37.0,24.1,59,30.17,10.0,West,4.6,-,N/A,,Clear,260,2012-11-27 22:55:00
5:15 PM,34.9,23.7,64,30.17,10.0,WNW,4.6,-,N/A,,Clear,290,2012-11-27 23:15:00
5:55 PM,30.6,22.3,71,30.19,10.0,Calm,Calm,-,N/A,,Clear,0,2012-11-27 23:55:00
6:35 PM,23.9,19.0,82,30.20,10.0,Calm,Calm,-,N/A,,Clear,0,2012-11-28 00:35:00
6:55 PM,23.5,18.9,82,30.21,10.0,Calm,Calm,-,N/A,,Clear,0,2012-11-28 00:55:00
7:15 PM,21.0,17.4,86,30.22,10.0,Calm,Calm,-,N/A,,Clear,0,2012-11-28 01:15:00
7:35 PM,22.5,18.5,85,30.22,10.0,Calm,Calm,-,N/A,,Clear,0,2012-11-28 01:35:00
7:55 PM,23.9,19.8,84,30.23,10.0,Calm,Calm,-,N/A,,Clear,0,2012-11-28 01:55:00
8:35 PM,21.4,18.7,89,30.25,10.0,Calm,Calm,-,N/A,,Clear,0,2012-11-28 02:35:00
8:55 PM,22.1,18.7,87,30.25,10.0,Calm,Calm,-,N/A,,Clear,0,2012-11-28 02:55:00
9:15 PM,22.3,19.0,87,30.25,10.0,Calm,Calm,-,N/A,,Clear,0,2012-11-28 03:15:00
9:35 PM,21.9,18.5,87,30.26,10.0,Calm,Calm,-,N/A,,Clear,0,2012-11-28 03:35:00
9:55 PM,23.7,19.6,84,30.27,10.0,Calm,Calm,-,N/A,,Clear,0,2012-11-28 03:55:00
10:15 PM,23.5,19.6,85,30.27,10.0,Calm,Calm,-,N/A,,Clear,0,2012-11-28 04:15:00
10:35 PM,25.9,21.4,83,30.27,10.0,Calm,Calm,-,N/A,,Clear,0,2012-11-28 04:35:00
10:55 PM,24.3,18.7,79,30.27,10.0,Calm,Calm,-,N/A,,Clear,0,2012-11-28 04:55:00
11:15 PM,22.8,18.5,83,30.28,10.0,North,3.5,-,N/A,,Clear,360,2012-11-28 05:15:00
11:55 PM,23.9,21.0,89,30.29,10.0,Calm,Calm,-,N/A,,Clear,0,2012-11-28 05:55:00